This demonstration page uses our WeatherBlox Daily Observations layout. Learn more.

Left ArrowRight Arrow

Hourly Observations for July 17, 2021

Temp ( °F °C ) Dew Point ( °F °C ) Humidity (%) Winds ( mph kmh ) Pressure ( in mb ) Visibility ( mi km ) Precip ( " mm )
12:15 am 00:15 Clear 71 21.8 69 20.5 92 92 SE 7 11 29.93 1013 10 16 N/A
12:35 am 00:35 Clear 71 21.5 69 20.4 93 93 SE 9 15 29.92 1013 10 16 N/A
12:55 am 00:55 Clear 70 21.3 68 20.2 93 93 SE 8 13 29.91 1013 10 16 N/A
1:15 am 01:15 Clear 70 21.3 68 20.1 93 93 SE 9 15 29.92 1013 10 16 N/A
1:35 am 01:35 Clear 70 21.3 68 20 92 92 SE 7 11 29.93 1014 10 16 N/A
1:55 am 01:55 Clear with Nearby Thunderstorms 70 21.1 67 19.7 92 92 SE 6 9 29.94 1014 10 16 N/A
2:15 am 02:15 Clear with Nearby Thunderstorms 69 20.8 67 19.7 93 93 NNW 9 15 29.97 1015 10 16 N/A
2:35 am 02:35 Partly Cloudy 71 21.4 68 20 92 92 NW 13 20 29.99 1016 10 16 N/A
2:55 am 02:55 Cloudy with Thunderstorms 71 21.6 68 20.2 92 92 N 20 31 30.00 1016 10 16 N/A
3:15 am 03:15 Cloudy 68 19.8 64 17.6 87 87 NNW 15 24 30.03 1017 10 16 0.01 0.25
3:35 am 03:35 Cloudy with Strong Thunderstorms 65 18.4 64 17.5 95 95 N 22 35 30.05 1017 3 5 0.17 4.32
3:55 am 03:55 Cloudy with Thunderstorms 65 18.2 64 17.5 96 96 NNW 10 17 30.06 1018 7 11 0.26 6.60
4:15 am 04:15 Cloudy with Thunderstorms 65 18.3 63 17.2 93 93 N 14 22 30.04 1017 10 16 0.03 0.76
4:35 am 04:35 Cloudy with Nearby Thunderstorms 65 18.3 62 16.7 90 90 NE 13 20 30.03 1017 5 8 0.12 3.05
4:55 am 04:55 Cloudy 64 18 62 16.7 92 92 SE 9 15 29.97 1015 7 11 0.18 4.57
5:15 am 05:15 Partly Cloudy 65 18.2 63 17 93 93 SE 9 15 29.94 1014 10 16 N/A
5:35 am 05:35 Clear 65 18.1 63 17 93 93 ESE 12 19 29.93 1013 10 16 N/A
5:55 am 05:55 Partly Cloudy 65 18.2 63 17.1 93 93 ESE 6 9 29.96 1014 10 16 N/A
6:15 am 06:15 Partly Cloudy 65 18.4 63 17.2 93 93 SSE 8 13 29.95 1014 10 16 N/A
6:35 am 06:35 Sunny 65 18.2 63 17.1 93 93 SE 5 7 29.96 1014 10 16 N/A
6:55 am 06:55 Partly Cloudy 65 18.4 63 17.2 93 93 E 3 6 29.96 1014 10 16 N/A
7:15 am 07:15 Mostly Cloudy 65 18.5 64 17.5 94 94 N N/A 29.96 1014 10 16 N/A
7:35 am 07:35 Partly Cloudy 66 19 64 17.8 93 93 NW 6 9 29.96 1015 10 16 N/A
7:55 am 07:55 Sunny 66 19 64 18 94 94 N N/A 29.97 1015 10 16 N/A
8:15 am 08:15 Sunny 67 19.3 64 18 92 92 NW 6 9 29.97 1015 10 16 N/A
8:35 am 08:35 Sunny 68 19.9 65 18.2 90 90 N N/A 29.97 1015 10 16 N/A
8:55 am 08:55 Sunny 69 20.5 65 18.2 87 87 N N/A 29.97 1015 10 16 N/A
9:15 am 09:15 Sunny 70 21.1 65 18.4 85 85 N N/A 29.97 1015 10 16 N/A
9:35 am 09:35 Sunny 71 21.5 65 18.2 82 82 N N/A 29.99 1016 10 16 N/A
9:55 am 09:55 Sunny 72 22.1 65 18.5 80 80 N N/A 30.00 1016 10 16 N/A
10:15 am 10:15 Sunny 72 22.1 65 18.4 80 80 N N/A 30.00 1016 10 16 N/A
10:35 am 10:35 Sunny 74 23.1 67 19.3 79 79 ENE 5 7 30.00 1016 10 16 N/A
10:55 am 10:55 Sunny 74 23.4 67 19.2 77 77 N N/A 30.00 1016 10 16 N/A
11:15 am 11:15 Sunny 75 23.7 66 19.1 76 76 ENE 3 6 30.00 1016 10 16 N/A
11:35 am 11:35 Partly Cloudy 76 24.2 67 19.4 75 75 N N/A 30.00 1016 10 16 N/A
11:55 am 11:55 Partly Cloudy 77 25.2 68 19.8 72 72 S 5 7 29.99 1015 10 16 N/A
12:15 pm 12:15 Partly Cloudy 78 25.4 68 19.9 72 72 S 3 6 29.99 1015 10 16 N/A
12:35 pm 12:35 Sunny 78 25.5 67 19.7 70 70 ESE 3 6 29.99 1015 10 16 N/A
12:55 pm 12:55 Sunny 79 26.3 66 19.1 65 65 S 8 13 29.98 1015 10 16 N/A
1:15 pm 13:15 Sunny 80 26.8 67 19.5 64 64 S 6 9 29.97 1015 10 16 N/A
1:35 pm 13:35 Sunny 80 26.8 68 19.8 66 66 S 7 11 29.96 1015 10 16 N/A
1:55 pm 13:55 Sunny 82 27.5 69 20.7 66 66 SSW 6 9 29.96 1015 10 16 N/A
2:15 pm 14:15 Sunny 82 27.6 69 20.6 66 66 SE 7 11 29.96 1014 10 16 N/A
2:35 pm 14:35 Partly Cloudy 81 27.4 69 20.8 67 67 SE 5 7 29.96 1015 10 16 N/A
2:55 pm 14:55 Sunny 83 28.3 71 21.6 67 67 S 7 11 29.95 1014 10 16 N/A
3:15 pm 15:15 Sunny 82 28 70 21.3 67 67 E 5 7 29.95 1014 10 16 N/A
3:35 pm 15:35 Sunny 83 28.4 71 21.7 67 67 E 6 9 29.95 1014 10 16 N/A
3:55 pm 15:55 Partly Cloudy 83 28.5 71 21.5 66 66 SSE 6 9 29.94 1014 10 16 N/A
4:15 pm 16:15 Partly Cloudy 84 28.8 72 22 67 67 S 6 9 29.94 1014 10 16 N/A
4:35 pm 16:35 Partly Cloudy 84 28.9 71 21.7 65 65 SSE 6 9 29.94 1014 10 16 N/A
4:55 pm 16:55 Mostly Cloudy 84 29.1 71 21.9 65 65 SSE 7 11 29.93 1013 10 16 N/A
5:15 pm 17:15 Mostly Cloudy 84 29 72 22.3 67 67 ESE 7 11 29.92 1013 10 16 N/A
5:35 pm 17:35 Partly Cloudy 84 29.1 72 22.2 66 66 SE 7 11 29.92 1013 10 16 N/A
5:55 pm 17:55 Partly Cloudy 83 28.5 71 21.8 67 67 E 7 11 29.92 1013 10 16 N/A
6:15 pm 18:15 Partly Cloudy 84 28.7 71 21.9 67 67 SE 7 11 29.92 1013 10 16 N/A
6:35 pm 18:35 Partly Cloudy 83 28.5 71 21.5 66 66 SE 8 13 29.92 1013 10 16 N/A
6:55 pm 18:55 Partly Cloudy 83 28.5 69 20.8 63 63 SE 8 13 29.91 1013 10 16 N/A
7:15 pm 19:15 Sunny 83 28.1 70 21.3 67 67 ESE 12 19 29.92 1013 10 16 N/A
7:35 pm 19:35 Sunny 82 27.6 69 20.6 66 66 SE 9 15 29.94 1014 10 16 N/A
7:55 pm 19:55 Sunny 81 27.1 69 20.5 67 67 SE 9 15 29.95 1014 10 16 N/A
8:15 pm 20:15 Sunny 80 26.6 69 20.3 68 68 SE 8 13 29.96 1014 10 16 N/A
8:35 pm 20:35 Sunny 79 26 69 20.6 72 72 SE 9 15 29.97 1015 10 16 N/A
8:55 pm 20:55 Sunny 78 25.6 69 20.5 73 73 SE 8 13 29.97 1015 10 16 N/A
9:15 pm 21:15 Clear 77 25 69 20.6 77 77 SE 10 17 29.98 1015 10 16 N/A
9:35 pm 21:35 Clear 76 24.6 70 21 80 80 ESE 10 17 29.99 1016 10 16 N/A
9:55 pm 21:55 Clear 75 23.9 70 21.3 85 85 ESE 8 13 30.01 1016 10 16 N/A
10:15 pm 22:15 Clear 75 23.7 71 21.6 88 88 ESE 8 13 30.02 1017 10 16 N/A
10:35 pm 22:35 Clear 74 23.5 71 21.5 89 89 ESE 8 13 30.03 1017 10 16 N/A
10:55 pm 22:55 Clear 74 23.3 70 21.2 88 88 ESE 7 11 30.05 1018 10 16 N/A
11:15 pm 23:15 Clear 73 23 70 21 89 89 ESE 7 11 30.06 1018 10 16 N/A
11:35 pm 23:35 Clear 73 22.7 70 21 90 90 ESE 7 11 30.07 1018 10 16 N/A
11:55 pm 23:55 Clear 73 22.6 70 20.9 90 90 SE 7 11 30.07 1018 10 16 N/A

Powered by AerisWeather